Kars, Turkey

4:43 AM EET on February 10, 2016 (GMT +0200)
Kars

Weather History for LTCF - August, 2013

Change the Weather History Date:

Monday, August 19, 2013

  Actual Average Record
Temperature  
Mean Temperature 61 °F -  
Max Temperature 74 °F 74 °F - ()
Min Temperature 48 °F 44 °F - ()
Degree Days  
Heating Degree Days 4    
Growing Degree Days 11 (Base 50)    
Moisture  
Dew Point 49 °F    
Average Humidity 70    
Maximum Humidity 94    
Minimum Humidity 4    
Precipitation  
Precipitation 0.02 in 0.04 in - ()
Sea Level Pressure  
Sea Level Pressure 30.07 in    
Wind  
Wind Speed 5 mph ()    
Max Wind Speed 12 mph    
Max Gust Speed -    
Visibility 6.1 miles    
Events Rain , Thunderstorm    
T = Trace of Precipitation, MM = Missing Value Source: Averaged Metar Reports

Daily Weather History Graph

Daily Weather History Graph

Search for Another Location

Airport or City:

Trip Planner

Search our weather history database for the weather conditions in past years. The results will help you decide how hot, cold, wet, or windy it might be!

Date:

Astronomy

Aug. 19, 2013 Rise Set
Actual Time 5:21 AM EEST 6:59 PM EEST
Civil Twilight 4:52 AM EEST 7:28 PM EEST
Nautical Twilight 4:17 AM EEST 8:03 PM EEST
Astronomical Twilight 3:40 AM EEST 8:40 PM EEST
Moon 5:34 PM EEST (8/19) 3:14 AM EEST (8/19)
Length of Visible Light 14h 35m
Length of Day
13h 37m
Waxing Gibbous, 96% of the Moon is Illuminated
Aug 19
Waxing Gibbous
Aug 21
Full
Aug 28
Last Quarter
Sep 5
New
Sep 12
First Quarter

Hourly Weather History & Observations

Time (EEST) Temp. Dew Point Humidity Pressure Visibility Wind Dir Wind Speed Gust Speed Precip Events Conditions
12:50 AM 55.4 °F 53.6 °F 94% 30.04 in 6.2 mi East 6.9 mph - N/A   Mostly Cloudy
1:50 AM 55.4 °F 51.8 °F 88% 30.04 in 6.2 mi NE 6.9 mph - N/A   Scattered Clouds
3:00 AM 53 °F 51 °F 88%  in 6 mi East 5.8 mph - -   Scattered Clouds
3:50 AM 51.8 °F 50.0 °F 94% 30.04 in 6.2 mi ESE 1.2 mph - N/A   Partly Cloudy
4:50 AM 50.0 °F 48.2 °F 94% 30.04 in 6.2 mi ESE 4.6 mph - N/A   Partly Cloudy
5:50 AM 50.0 °F 48.2 °F 94% 30.06 in 6.2 mi Variable 3.5 mph - N/A   Partly Cloudy
6:50 AM 53.6 °F 51.8 °F 94% 30.06 in 6.2 mi Calm Calm - N/A   Partly Cloudy
7:50 AM 55.4 °F 53.6 °F 94% 30.06 in 6.2 mi NW 3.5 mph - N/A   Partly Cloudy
8:50 AM 64.4 °F 51.8 °F 64% 30.06 in 6.2 mi NE 5.8 mph - N/A   Scattered Clouds
9:00 AM 64 °F 51 °F 53%  in 6 mi NE 5.8 mph - -   Partly Cloudy
9:50 AM 68.0 °F 50.0 °F 52% 30.06 in 6.2 mi Variable 5.8 mph - N/A   Scattered Clouds
9:54 AM 68.0 °F 50.0 °F 52% 30.06 in 6.2 mi Variable 4.6 mph - N/A   Scattered Clouds
10:22 AM 64.4 °F 50.0 °F 59% 30.06 in 6.2 mi ENE 5.8 mph - N/A Thunderstorm Thunderstorm
10:50 AM 68.0 °F 48.2 °F 49% 30.06 in 6.2 mi NNE 5.8 mph - N/A   Scattered Clouds
11:50 AM 69.8 °F 50.0 °F 49% 30.04 in 6.2 mi North 11.5 mph - N/A   Scattered Clouds
12:50 PM 71.6 °F 50.0 °F 46% 30.04 in 6.2 mi North 11.5 mph - N/A   Scattered Clouds
1:50 PM 73.4 °F 46.4 °F 38% 30.04 in 6.2 mi North 11.5 mph - N/A   Scattered Clouds
2:50 PM 71.6 °F 44.6 °F 38% 30.01 in 6.2 mi North 4.6 mph - N/A   Mostly Cloudy
3:00 PM 71 °F 9 °F 4%  in 6 mi North 4.6 mph - -   Mostly Cloudy
3:03 PM 71.6 °F 44.6 °F 38% 30.01 in 6.2 mi North 4.6 mph - N/A Rain , Thunderstorm Light Thunderstorms and Rain
3:50 PM 71.6 °F 44.6 °F 38% 30.01 in 3.7 mi North 4.6 mph - N/A Rain , Thunderstorm Light Thunderstorms and Rain
4:50 PM 57.2 °F 53.6 °F 88% 30.06 in 6.2 mi North 4.6 mph - N/A   Mostly Cloudy
5:50 PM 59.0 °F 55.4 °F 88% 30.09 in 6.2 mi NNE 4.6 mph - N/A   Mostly Cloudy
6:50 PM 60.8 °F 53.6 °F 77% 30.12 in 6.2 mi NNE 4.6 mph - N/A   Mostly Cloudy
7:50 PM 57.2 °F 53.6 °F 88% 30.12 in 6.2 mi NNE 4.6 mph - N/A   Mostly Cloudy
8:50 PM 55.4 °F 51.8 °F 88% 30.12 in 6.2 mi NNE 5.8 mph - N/A   Mostly Cloudy
9:00 PM 56 °F 51 °F 80%  in 6 mi NNE 5.8 mph - -   Partly Cloudy
9:50 PM 55.4 °F 51.8 °F 88% 30.15 in 6.2 mi NNE 3.5 mph - N/A   Mostly Cloudy
10:50 PM 53.6 °F 51.8 °F 94% 30.15 in 6.2 mi NNE 3.5 mph - N/A   Mostly Cloudy
11:50 PM 53.6 °F 50.0 °F 88% 30.12 in 6.2 mi NNE 4.6 mph - N/A   Scattered Clouds